This is the latest recevied weather packets stored in our database for station/object K6CED. If no packets are shown the sender has not sent any weather packets the latest 10 day(s).
| Time | Temp. | Humidity | Pressure | Rain* | Wind** | Luminosity | Snow |
|---|---|---|---|---|---|---|---|
| 1787625065 | 27.22° C | 58% | 1016.2 hPa | 0 mm | - | 1 W/m² | - |
| 1787624759 | 27.78° C | 57% | 1016 hPa | 0 mm | - | 3 W/m² | - |
| 1787624454 | 27.78° C | 57% | 1016 hPa | 0 mm | - | 6 W/m² | - |
| 1787624150 | 28.33° C | 54% | 1015.9 hPa | 0 mm | - | 11 W/m² | - |
| 1787623845 | 28.89° C | 54% | 1015.7 hPa | 0 mm | - | 15 W/m² | - |
| 1787623543 | 28.89° C | 52% | 1015.7 hPa | 0 mm | - | 18 W/m² | - |
| 1787623238 | 29.44° C | 51% | 1015.7 hPa | 0 mm | - | 21 W/m² | - |
| 1787622932 | 30° C | 50% | 1015.5 hPa | 0 mm | - | 24 W/m² | - |
| 1787622629 | 30° C | 50% | 1015.5 hPa | 0 mm | - | 28 W/m² | - |
| 1787622325 | 30° C | 49% | 1015.4 hPa | 0 mm | - | 30 W/m² | - |
| 1787622020 | 30.56° C | 49% | 1015.5 hPa | 0 mm | - | 34 W/m² | - |
| 1787621719 | 30.56° C | 49% | 1015.4 hPa | 0 mm | - | 42 W/m² | - |
| 1787621415 | 30.56° C | 48% | 1015.5 hPa | 0 mm | - | 46 W/m² | - |
| 1787621111 | 30.56° C | 48% | 1015.5 hPa | 0 mm | - | 48 W/m² | - |
| 1787620807 | 31.11° C | 47% | 1015.4 hPa | 0 mm | - | 49 W/m² | - |
| 1787620502 | 31.11° C | 46% | 1015.4 hPa | 0 mm | - | 55 W/m² | - |
| 1787620198 | 31.67° C | 46% | 1015.4 hPa | 0 mm | - | 60 W/m² | - |
| 1787619893 | 31.67° C | 45% | 1015 hPa | 0 mm | - | 62 W/m² | - |
| 1787619593 | 32.22° C | 44% | 1015.2 hPa | 0 mm | - | 76 W/m² | - |
| 1787619289 | 32.78° C | 43% | 1015.1 hPa | 0 mm | - | 121 W/m² | - |
| 1787618983 | 32.78° C | 43% | 1015.5 hPa | 0 mm | - | 107 W/m² | - |
| 1787618678 | 32.78° C | 42% | 1015.3 hPa | 0 mm | - | 121 W/m² | - |
| 1787618375 | 33.33° C | 42% | 1015.3 hPa | 0 mm | - | 115 W/m² | - |
| 1787618066 | 33.33° C | 42% | 1015.2 hPa | 0 mm | - | 122 W/m² | - |
| 1787617765 | 33.33° C | 42% | 1015 hPa | 0 mm | - | 127 W/m² | - |
* Rain latest hour (hover to see other rain measurements)
** Current wind speed in m/s (hover to see current wind gust speed)